EW3775 Weather Reports


Display with metric or nautical units.
time (UTC)temp
F
wind
direction
speed
MPH
gust
MPH
rain 1hr
in
rain 24hr
in
rain mn
in
humidity
%
barometer
mb
20180820204916 82 197 2.0 5.0 0.00 0.00 0.00 49 1019.2
20180820203420 82 131 1.0 8.0 0.00 0.00 0.00 48 1019.2
20180820201919 83 158 2.0 8.0 0.00 0.00 0.00 46 1019.3
20180820200424 84 152 2.0 9.0 0.00 0.00 0.00 46 1019.6
20180820194924 83 90 1.0 5.0 0.00 0.00 0.00 46 1019.4
20180820193425 83 98 2.0 7.0 0.00 0.00 0.00 48 1019.5
20180820191927 82 150 1.0 3.0 0.00 0.00 0.00 48 1019.4
20180820190427 84 120 3.0 9.0 0.00 0.00 0.00 47 1019.8
20180820184929 83 48 2.0 7.0 0.00 0.00 0.00 49 1019.9
20180820183425 81 93 1.0 6.0 0.00 0.00 0.00 51 1020.1
20180820181922 78 344 0.0 4.0 0.00 0.00 0.00 54 1020.3
20180820180423 80 48 2.0 8.0 0.00 0.00 0.00 50 1020.3
20180820174921 80 90 3.0 7.0 0.00 0.00 0.00 52 1020.6
20180820173420 81 101 3.0 6.0 0.00 0.00 0.00 51 1020.7
20180820171922 82 83 1.0 8.0 0.00 0.00 0.00 53 1020.8
20180820170419 81 4 2.0 8.0 0.00 0.00 0.00 51 1021.0
20180820164920 79 91 2.0 8.0 0.00 0.00 0.00 57 1021.2
20180820163417 78 66 1.0 6.0 0.00 0.00 0.00 58 1021.3
20180820161916 78 150 2.0 10.0 0.00 0.00 0.00 56 1021.4
20180820160417 78 37 3.0 11.0 0.00 0.00 0.00 59 1021.7
20180820154915 78 93 7.0 10.0 0.00 0.00 0.00 57 1021.7
20180820153417 77 110 3.0 9.0 0.00 0.00 0.00 60 1021.7
20180820151915 77 146 2.0 9.0 0.00 0.00 0.00 61 1021.8
20180820150434 76 85 4.0 10.0 0.00 0.00 0.00 62 1021.9
20180820144933 74 48 2.0 9.0 0.00 0.00 0.00 66 1022.0
20180820143431 73 118 4.0 9.0 0.00 0.00 0.00 67 1022.1
20180820141929 72 99 5.0 10.0 0.00 0.00 0.00 69 1022.1
20180820140432 72 85 5.0 12.0 0.00 0.00 0.00 68 1022.0
20180820134930 71 111 6.0 9.0 0.00 0.00 0.00 71 1022.0
20180820133433 70 90 5.0 11.0 0.00 0.00 0.00 73 1022.1
20180820131931 68 85 3.0 7.0 0.00 0.00 0.00 77 1022.0
20180820130429 66 59 0.0 3.0 0.00 0.00 0.00 81 1022.0
20180820124934 66 89 3.0 7.0 0.00 0.00 0.00 82 1021.9
20180820123417 64 84 0.0 4.0 0.00 0.00 0.00 89 1021.8
20180820121923 62 88 0.0 2.0 0.00 0.00 0.00 94 1021.6
20180820120426 60 56 0.0 0.0 0.00 0.00 0.00 97 1021.6
20180820114928 59 56 0.0 0.0 0.00 0.00 0.00 98 1021.8
20180820113434 58 56 0.0 0.0 0.00 0.00 0.00 97 1021.7
20180820111917 57 56 0.0 0.0 0.00 0.00 0.00 97 1021.6
20180820110424 56 56 0.0 0.0 0.00 0.00 0.00 97 1021.6
20180820104926 56 56 0.0 0.0 0.00 0.00 0.00 97 1021.6
20180820103430 56 56 0.0 0.0 0.00 0.00 0.00 97 1021.4
20180820101915 56 56 0.0 0.0 0.00 0.00 0.00 96 1021.3
20180820100417 57 56 0.0 0.0 0.00 0.00 0.00 96 1021.1
20180820094922 57 56 0.0 0.0 0.00 0.00 0.00 96 1021.0
20180820093425 57 56 0.0 0.0 0.00 0.00 0.00 96 1021.2
20180820091926 58 56 0.0 0.0 0.00 0.00 0.00 96 1020.9
20180820090433 58 56 0.0 0.0 0.00 0.00 0.00 96 1021.0
20180820084915 59 56 0.0 0.0 0.00 0.00 0.00 96 1020.9
20180820083422 59 56 0.0 0.0 0.00 0.00 0.00 96 1020.8
20180820081923 60 56 0.0 0.0 0.00 0.00 0.00 95 1020.8
20180820080427 60 56 0.0 0.0 0.00 0.00 0.00 95 1020.5
20180820074933 61 56 0.0 0.0 0.00 0.00 0.00 95 1020.4
20180820073418 61 56 0.0 0.0 0.00 0.00 0.00 95 1020.2
20180820071923 62 56 0.0 0.0 0.00 0.00 0.00 95 1020.2
20180820070425 62 56 0.0 0.0 0.00 0.00 0.00 95 1020.1
20180820064927 62 56 0.0 0.0 0.00 0.00 0.00 95 1020.2
20180820063415 62 56 0.0 0.0 0.00 0.00 0.00 95 1019.9
20180820061918 63 56 0.0 0.0 0.00 0.00 0.00 94 1019.9
20180820060425 63 56 0.0 0.0 0.00 0.00 0.00 94 1019.9
20180820054927 63 56 0.0 0.0 0.00 0.00 0.00 94 1019.9
20180820053430 63 56 0.0 0.0 0.00 0.00 0.00 94 1019.9
20180820051916 63 56 0.0 0.0 0.00 0.00 0.00 94 1019.9
20180820050419 63 56 0.0 0.0 0.00 0.00 0.00 93 1019.7
20180820044924 63 32 0.0 0.0 0.00 0.00 0.00 93 1019.5
20180820043426 63 32 0.0 0.0 0.00 0.00 0.00 93 1019.6
20180820041928 63 32 0.0 0.0 0.00 0.00 0.00 93 1019.7
20180820040430 64 32 0.0 0.0 0.00 0.00 0.00 93 1019.6
20180820034933 64 32 0.0 0.0 0.00 0.00 0.00 92 1019.5
20180820033435 64 32 0.0 0.0 0.00 0.00 0.00 92 1019.6
20180820031930 64 32 0.0 0.0 0.00 0.00 0.00 92 1019.4
20180820030433 64 32 0.0 0.0 0.00 0.00 0.00 92 1019.4
20180820024928 64 32 0.0 0.0 0.00 0.00 0.00 91 1019.3
20180820023425 65 32 0.0 0.0 0.00 0.00 0.00 91 1019.2
20180820021922 65 32 0.0 0.0 0.00 0.00 0.00 90 1019.1
20180820020421 65 32 0.0 0.0 0.00 0.00 0.00 90 1019.2
20180820014921 66 32 0.0 0.0 0.00 0.00 0.00 89 1019.2
20180820013419 66 32 1.0 2.0 0.00 0.00 0.00 88 1019.2
20180820011920 66 32 0.0 0.0 0.00 0.00 0.00 88 1019.0
20180820010417 66 32 0.0 0.0 0.00 0.00 0.00 88 1018.9
20180820004934 67 32 0.0 0.0 0.00 0.00 0.00 87 1018.8
20180820003416 67 32 0.0 0.0 0.00 0.00 0.00 86 1018.6
20180820001933 68 32 0.0 0.0 0.00 0.00 0.00 85 1018.5
20180820000431 68 32 0.0 0.0 0.00 0.00 0.00 85 1018.4
20180819234931 69 32 0.0 0.0 0.00 0.00 0.00 83 1018.3
20180819233430 70 32 0.0 0.0 0.00 0.00 0.00 82 1018.2
20180819231931 70 32 0.0 0.0 0.00 0.00 0.00 79 1018.2
20180819230429 70 32 0.0 0.0 0.00 0.00 0.00 79 1018.2
20180819224925 71 32 0.0 0.0 0.00 0.00 0.00 78 1018.1
20180819223428 71 32 0.0 0.0 0.00 0.00 0.00 75 1017.9
20180819221924 72 32 0.0 0.0 0.00 0.00 0.00 74 1017.9
20180819220421 73 85 0.0 2.0 0.00 0.00 0.00 71 1017.8
20180819214920 74 85 0.0 3.0 0.00 0.00 0.00 67 1017.7
20180819213419 76 85 0.0 4.0 0.00 0.00 0.00 64 1017.6
20180819211920 76 87 3.0 4.0 0.00 0.00 0.00 62 1017.5
20180819210418 75 81 3.0 8.0 0.00 0.00 0.00 65 1017.4